This demonstration page uses our WeatherBlox Daily Observations layout. Learn more.

36.17497, -115.13722

Hourly Observations for May 17, 2015

Temp ( °F °C ) Dew Point ( °F °C ) Humidity (%) Winds ( mph kmh ) Pressure ( in mb ) Visibility ( mi km ) Precip ( " mm )
12:53 am 00:53 Clear 67 19.4 33 0.6 28 28 S 12 19 29.91 1013 10 16.0934 0 0
1:53 am 01:53 Clear 65 18.3 33 0.6 31 31 SSW 3 6 29.92 1013 10 16.0934 0 0
2:53 am 02:53 Clear 64 17.8 34 1.1 33 33 Calm 29.93 1013 10 16.0934 0 0
3:53 am 03:53 Clear 61 16.1 34 1.1 36 36 NW 3 6 29.94 1014 10 16.0934 0 0
4:53 am 04:53 Clear 59 15 35 1.7 41 41 E 8 13 29.95 1014 10 16.0934 0 0
5:53 am 05:53 Sunny 59 15 35 1.7 41 41 NE 5 7 29.97 1015 10 16.0934 0 0
6:53 am 06:53 Sunny 62 16.7 36 2.2 38 38 NE 5 7 29.99 1016 10 16.0934 0 0
7:53 am 07:53 Sunny 64 17.8 35 1.7 34 34 SE 8 13 30.01 1016 10 16.0934 0 0
8:53 am 08:53 Sunny 66 18.9 35 1.7 32 32 SE 7 11 30.01 1016 10 16.0934 0 0
9:53 am 09:53 Sunny 68 20 34 1.1 28 28 E 6 9 30.01 1016 10 16.0934 0 0
10:53 am 10:53 Sunny 71 21.7 34 1.1 26 26 ESE 7 11 30.01 1016 10 16.0934 0 0
11:53 am 11:53 Sunny 73 22.8 33 0.6 23 23 undefined N/A 30 1016 10 16.0934 0 0
12:53 pm 12:53 Sunny 76 24.4 32 0 20 20 ESE 13 20 29.96 1015 10 16.0934 0 0
1:53 pm 13:53 Mostly Sunny 77 25 29 -1.7 17 17 SE 15 24 29.94 1014 10 16.0934 0 0
2:53 pm 14:53 Partly Cloudy 77 25 29 -1.7 17 17 SSE 10 17 29.91 1013 10 16.0934 0 0
3:53 pm 15:53 Mostly Sunny 77 25 28 -2.2 16 16 ESE 5 7 29.9 1012 10 16.0934 0 0
4:53 pm 16:53 Mostly Sunny 78 25.6 26 -3.3 15 15 SSW 3 6 29.88 1012 10 16.0934 0 0
5:53 pm 17:53 Mostly Sunny 79 26.1 25 -3.9 14 14 SSE 9 15 29.86 1011 10 16.0934 0 0
6:53 pm 18:53 Mostly Sunny 78 25.6 25 -3.9 14 14 SSE 15 24 29.86 1011 10 16.0934 0 0
7:53 pm 19:53 Clear 77 25 26 -3.3 15 15 SSE 16 26 29.87 1011 10 16.0934 0 0
8:53 pm 20:53 Clear 76 24.4 27 -2.8 16 16 S 15 24 29.88 1012 10 16.0934 0 0
9:53 pm 21:53 Clear 75 23.9 29 -1.7 18 18 S 10 17 29.89 1012 10 16.0934 0 0
10:53 pm 22:53 Clear 74 23.3 30 -1.1 20 20 S 12 19 29.9 1012 10 16.0934 0 0
11:53 pm 23:53 Clear 73 22.8 30 -1.1 20 20 SSW 10 17 29.9 1013 10 16.0934 0 0

Powered by AerisWeather